Total_Precipitation_Accumulation
0.00 0.00 0.00 0.00 0.00 0.00 0.00 0.02 0.11 0.15 0.08 0.07 0.14 0.17 0.15 0.21 0.21 0.09 0.05 0.00 0.00 0.00
0.00 0.00 0.00 0.00 0.00 0.00 0.00 0.00 0.01 0.20 0.21 0.10 0.06 0.09 0.19 0.24 0.23 0.24 0.13 0.03 0.00 0.00
0.00 0.00 0.00 0.00 0.00 0.00 0.00 0.00 0.00 0.04 0.32 0.32 0.16 0.11 0.08 0.12 0.20 0.35 0.33 0.23 0.15 0.05
0.00 0.00 0.00 0.00 0.00 0.00 0.00 0.00 0.00 0.01 0.07 0.24 0.34 0.22 0.17 0.11 0.09 0.14 0.25 0.30 0.29 0.20
0.00 0.00 0.00 0.00 0.00 0.00 0.00 0.00 0.00 0.00 0.04 0.19 0.17 0.27 0.22 0.17 0.15 0.12 0.09 0.11 0.17 0.22
0.00 0.00 0.00 0.00 0.00 0.00 0.00 0.00 0.00 0.00 0.00 0.16 0.24 0.17 0.18 0.18 0.17 0.17 0.14 0.08 0.04 0.06
0.00 0.00 0.00 0.00 0.00 0.00 0.00 0.00 0.00 0.00 0.00 0.09 0.33 0.32 0.19 0.15 0.18 0.18 0.18 0.13 0.06 0.03
0.00 0.00 0.00 0.00 0.00 0.00 0.00 0.00 0.00 0.00 0.00 0.01 0.07 0.23 0.34 0.29 0.18 0.20 0.17 0.16 0.14 0.10
0.01 0.01 0.01 0.01 0.01 0.01 0.00 0.00 0.00 0.00 0.00 0.04 0.13 0.10 0.10 0.16 0.28 0.24 0.26 0.22 0.13 0.09
0.03 0.03 0.02 0.02 0.02 0.01 0.01 0.00 0.00 0.00 0.00 0.03 0.19 0.24 0.14 0.10 0.09 0.18 0.26 0.20 0.21 0.16
0.07 0.05 0.04 0.04 0.04 0.04 0.02 0.01 0.01 0.01 0.00 0.00 0.07 0.24 0.24 0.25 0.21 0.12 0.08 0.15 0.14 0.12
0.07 0.10 0.09 0.09 0.08 0.07 0.08 0.03 0.01 0.01 0.01 0.00 0.01 0.14 0.22 0.25 0.40 0.41 0.17 0.05 0.04 0.10
0.11 0.13 0.14 0.15 0.16 0.15 0.12 0.10 0.06 0.03 0.01 0.02 0.03 0.06 0.09 0.16 0.32 0.52 0.45 0.24 0.06 0.05
0.11 0.14 0.16 0.16 0.17 0.21 0.17 0.13 0.12 0.10 0.04 0.02 0.05 0.13 0.09 0.10 0.16 0.26 0.46 0.44 0.29 0.14